Home   Weather   Oshawa   Past weeks

Flag for Canada Past Weather in Oshawa, Ontario, Canada — Yesterday and Last 2 Weeks

Now
37 °F

Fog.


Feels Like: 37 °F
Forecast: 38 / 42 °F
Wind: 2 mph from North

Location: Toronto Buttonville

Current Time: Jan 22, 2017 at 1:18:44 am

Latest Report: Jan 22, 2017 at 12:00 am


Visibility: 0 mi

Pressure: 29.72 "Hg

Humidity: 93%

Dew Point: 36 °F

Location of OshawaLocation

Past Weather in Oshawa — Graph

°F

Oshawa Temperature Yesterday

Maximum temperature yesterday: 41 °F (at 2:00 pm)
Minimum temperature yesterday: 36 °F (at 4:43 am)
Average temperature yesterday: 38 °F

High & Low Weather Summary for the Past Weeks

 TemperatureHumidityPressure
High46 °F (Jan 12, 3:00 am)100% (Jan 10, 6:06 pm)30.81 "Hg (Jan 10, 6:06 pm)
Low7 °F (Jan 7, 5:00 am)48% (Jan 16, 4:00 pm)29.45 "Hg (Jan 11, 12:00 am)
Average29 °F81%30.10 "Hg
* Reported Jan 7 12:00 am — Jan 22 12:00 am, Oshawa, Weather by CustomWeather, © 2017

Note: Actual official high and low records may vary slightly from our data, if they occured in-between our weather recording intervals... More about our weather records

Advertising

Oshawa Weather History for the Previous 24 Hours

Scroll right to see more
 ConditionsComfort  
Time TempWeatherWind HumidityBarometerVisibility
12:00 am
Sun, Jan 22
37 °FFog.2 mph93%29.72 "Hg0 mi
11:00 pm
Sat, Jan 21
37 °FFog.3 mph93%29.72 "Hg0 mi
10:00 pm37 °FFog.2 mph100%29.73 "Hg0 mi
9:00 pm37 °FFog.5 mph100%29.74 "Hg0 mi
8:00 pm39 °FFog.3 mph93%29.75 "Hg0 mi
7:00 pm39 °FFog.6 mph93%29.74 "Hg0 mi
6:00 pm39 °FFog.5 mph93%29.73 "Hg0 mi
5:00 pm39 °FFog.6 mph100%29.73 "Hg0 mi
4:17 pm39 °FFog.8 mph100%29.74 "Hg0 mi
4:08 pm41 °FFog.7 mph93%29.74 "Hg1 mi
3:51 pm41 °FFog.6 mph93%29.74 "Hg1 mi
3:00 pm41 °FFog.6 mph93%29.74 "Hg1 mi
2:29 pm41 °FFog.5 mph93%29.73 "Hg1 mi
2:00 pm41 °FFog.6 mph93%29.73 "Hg2 mi
1:28 pm39 °FFog.5 mph100%29.74 "Hg2 mi
1:00 pm39 °FFog.5 mph100%29.74 "Hg1 mi
12:30 pm39 °FFog.3 mph100%29.76 "Hg1 mi
12:00 pm39 °FFog.2 mph93%29.78 "Hg1 mi
11:25 am37 °FFog.2 mph100%29.79 "Hg1 mi
11:10 am37 °FFog.2 mph100%29.79 "Hg1 mi
11:00 am37 °FFog.3 mph100%29.79 "Hg1 mi
10:41 am37 °FFog.3 mph100%29.81 "Hg1 mi
10:00 am36 °FFog.No wind100%29.80 "Hg0 mi
9:00 am36 °FFog.3 mph100%29.81 "Hg0 mi
8:00 am36 °FFog.5 mph100%29.81 "Hg0 mi
7:22 am36 °FFog.2 mph100%29.80 "Hg1 mi
7:00 am36 °FFog.2 mph100%29.80 "Hg1 mi
6:44 am37 °FFog.3 mph93%29.81 "Hg2 mi
6:38 am37 °FFog.3 mph93%29.81 "Hg2 mi
6:00 am36 °FFog.3 mph93%29.79 "Hg1 mi
5:00 am36 °FFog.No wind100%29.79 "Hg1 mi
4:43 am36 °FFog.No wind93%29.79 "Hg1 mi
4:00 am37 °FFog.3 mph93%29.80 "Hg1 mi
3:00 am37 °FFog.3 mph100%29.80 "Hg2 mi
2:00 am37 °FFog.No wind93%29.80 "Hg1 mi
1:13 am37 °FDrizzle. Fog.3 mph93%29.78 "Hg1 mi
1:00 am37 °FDrizzle. Fog.3 mph93%29.78 "Hg1 mi
Weather by CustomWeather, © 2017

See weather overviewHow to use our weather pages